TimeEDT,TemperatureF,Dew PointF,Humidity,Sea Level PressureIn,VisibilityMPH,Wind Direction,Wind SpeedMPH,Gust SpeedMPH,PrecipitationIn,Events,Conditions,WindDirDegrees,DateUTC
12:58 AM,64.4,59.2,83,30.04,10.0,North,5.8,-,N/A,,Clear,360,2013-07-13 04:58:00
1:58 AM,63.5,59.5,87,30.04,10.0,North,6.9,-,N/A,,Clear,360,2013-07-13 05:58:00
2:58 AM,63.9,59.0,84,30.03,10.0,North,3.5,-,N/A,,Clear,10,2013-07-13 06:58:00
3:58 AM,63.7,59.7,87,30.02,10.0,North,8.1,-,N/A,,Clear,360,2013-07-13 07:58:00
4:58 AM,62.6,59.7,90,30.03,10.0,North,8.1,-,N/A,,Clear,360,2013-07-13 08:58:00
5:58 AM,63.0,59.7,89,30.04,10.0,NNE,5.8,-,N/A,,Clear,20,2013-07-13 09:58:00
6:58 AM,62.4,59.5,90,30.05,10.0,NE,4.6,-,N/A,,Partly Cloudy,40,2013-07-13 10:58:00
7:58 AM,65.8,61.0,84,30.06,10.0,NNE,6.9,-,N/A,,Scattered Clouds,20,2013-07-13 11:58:00
8:58 AM,66.0,61.2,84,30.06,10.0,North,5.8,-,N/A,,Partly Cloudy,10,2013-07-13 12:58:00
9:58 AM,70.3,62.1,75,30.07,10.0,NE,9.2,-,N/A,,Partly Cloudy,40,2013-07-13 13:58:00
10:58 AM,73.0,61.9,68,30.07,10.0,NE,8.1,-,N/A,,Clear,40,2013-07-13 14:58:00
11:58 AM,77.2,63.9,63,30.07,10.0,ENE,10.4,-,N/A,,Clear,60,2013-07-13 15:58:00
12:58 PM,78.4,65.1,63,30.06,10.0,NE,9.2,-,N/A,,Partly Cloudy,40,2013-07-13 16:58:00
1:58 PM,78.4,64.9,63,30.06,10.0,NE,6.9,-,N/A,,Scattered Clouds,50,2013-07-13 17:58:00
2:58 PM,79.5,65.3,62,30.06,10.0,ENE,10.4,-,N/A,,Mostly Cloudy,60,2013-07-13 18:58:00
3:58 PM,80.6,65.3,59,30.04,10.0,ENE,9.2,-,N/A,,Scattered Clouds,60,2013-07-13 19:58:00
4:58 PM,76.6,59.2,55,30.05,10.0,ESE,18.4,35.7,N/A,,Scattered Clouds,110,2013-07-13 20:58:00
5:57 PM,73.4,59.0,61,30.05,10.0,East,11.5,-,N/A,Rain,Light Rain,90,2013-07-13 21:57:00
5:58 PM,74.1,59.4,60,30.05,10.0,East,11.5,-,N/A,Rain,Light Rain,100,2013-07-13 21:58:00
6:19 PM,75.2,60.8,61,30.04,10.0,East,8.1,-,N/A,,Partly Cloudy,90,2013-07-13 22:19:00
6:58 PM,75.6,64.2,68,30.05,10.0,East,6.9,-,0.00,,Partly Cloudy,100,2013-07-13 22:58:00
7:58 PM,76.6,66.2,70,30.06,10.0,East,6.9,-,N/A,,Clear,90,2013-07-13 23:58:00
8:58 PM,75.7,68.2,77,30.06,10.0,East,6.9,-,N/A,,Clear,80,2013-07-14 00:58:00
9:58 PM,74.3,66.7,77,30.08,10.0,ENE,6.9,-,N/A,,Clear,70,2013-07-14 01:58:00
10:58 PM,72.7,64.6,76,30.09,10.0,ENE,6.9,-,N/A,,Clear,60,2013-07-14 02:58:00